Regional Weather Roundup
Issued by NWS Jackson, KY

Home | Current Version | Previous Version | Graphics & Text | Print | Product List | Glossary On
Versions: 1 2 3 4 5 6 7 8 9 10 11 12 13 14 15 16 17 18 19 20 21 22 23 24 25 26 27 28 29 30 31 32 33 34 35 36 37 38 39 40 41 42 43 44 45 46 47 48 49 50
000
ASUS43 KJKL 191619
RWRJKL

EAST KENTUCKY HOURLY WEATHER ROUNDUP
NATIONAL WEATHER SERVICE JACKSON KY
1200 PM EDT SAT APR 19 2014

NOTE: "FAIR" INDICATES FEW OR NO CLOUDS BELOW 12,000 FEET WITH
NO SIGNIFICANT WEATHER AND/OR OBSTRUCTIONS TO VISIBILITY.

* THESE REPORTS ARE NOT UNDER NWS QUALITY CONTROL AND MAY NOT
  REPORT WEATHER SUCH AS PRECIPITATION AND FOG.

KYZ079-080-083-085-087-088-110-112-115-119-120-191700
...EASTERN KENTUCKY...

CITY           SKY/WX    TMP DP  RH WIND       PRES   REMARKS
JACKSON        SUNNY     71  37  28 VRB6      30.24F
LONDON         MOSUNNY   69  37  30 N15G23    30.21F
SOMERSET*      SUNNY     64  36  34 NE13G25   30.23F
MONTICELLO*    MOSUNNY   68  44  41 N12       30.23F
WILLIAMSBURG*  SUNNY     68  39  34 NE15      30.20F
MIDDLESBORO*   PTSUNNY   71  39  31 NE8       30.18F
HARLAN APT*    MOSUNNY   70  32  24 E13G18    30.19F
BLACK MTN*       N/A     59  30  33 NE12        N/A
PIKEVILLE APT* SUNNY     66  36  32 NE12G20   30.23S
BIG SANDY*     SUNNY     69  39  32 NE13G23   30.24R
ASHLAND*       SUNNY     68  41  37 E9        30.25F
$$

KYZ035-036-041-042-044-050-067-078-099-191700
...CENTRAL KENTUCKY...

CITY           SKY/WX    TMP DP  RH WIND       PRES   REMARKS
MT STERLING*   SUNNY     66  43  42 E14       30.28S
FLEMING/MASON* SUNNY     64  43  45 MISG      30.29F
DANVILLE*      SUNNY     66  43  42 NE12G22   30.27S
LEXINGTON      SUNNY     67  45  45 NE16      30.27F
FRANKFORT      SUNNY     66  43  43 E13       30.27F
$$

KYZ091>093-OHZ055-061-077-WVZ005-015-034-035-042-191700
...SOUTHERN OHIO/WEST VIRGINIA...

CITY           SKY/WX    TMP DP  RH WIND       PRES   REMARKS
COVINGTON      SUNNY     63  42  46 E12       30.31S
COLUMBUS       SUNNY     60  40  47 E10       30.34F
DAYTON         SUNNY     58  42  55 E9        30.36S
WILMINGTON     SUNNY     60  41  49 NE12      30.32S
HUNTINGTON     SUNNY     67  40  37 N10G18    30.26F
CHARLESTON     PTSUNNY   66  38  35 NE12G22   30.25F
PINEVILLE*     CLOUDY    66  37  34 MISG      30.27S
BECKLEY        CLOUDY    59  33  37 NE8       30.23F
BLUEFIELD      CLOUDY    59  33  37 NE9       30.24R
$$

VAZ002-007-008-TNZ017-027-036-066-071-191700
...SOUTHWEST VIRGINIA/EAST TENNESSEE...

CITY           SKY/WX    TMP DP  RH WIND       PRES   REMARKS
WISE*          MOSUNNY   63  30  29 NE16G25   30.22F
ABINGDON*      CLOUDY    65  34  31 E16G22    30.19F
BRISTOL        CLOUDY    65  34  31 NE12G20   30.18F
KNOXVILLE      CLOUDY    64  42  44 NE15G22   30.15F
OAK RIDGE      CLOUDY    69  40  34 E9        30.17F
CROSSVILLE     CLOUDY    63  37  38 NE13      30.20S
NASHVILLE      MOSUNNY   72  40  31 NE17      30.22F
$$

...KEY TO REMARKS...
VSB - VISIBILITY IN MILES
WCI - WIND CHILL INDEX
HX  - HEAT INDEX

$$



USA.gov is the U.S. government's official web portal to all federal, state and local government web resources and services.